Location: *
(41.7492°S, 135.4150°W)
Time: 19:09:18
(UTC+00:00)

Cosmos 1408 Rocket - Pass Details

Date: 20 September 2021
Orbit: 601 x 630 km, 82.6° (Epoch: 16 October)

Event Time Altitude Azimuth Distance (km) Brightness Sun altitude
Exits shadow 12:29:53 41° 178° (S) 906 4.5 -26.9°
Drops below altitude 10° 12:32:49 10° 174° (S) 1,998 6.5 -26.4°
Sets 12:35:03 0° 172° (S) 2,907 7.4 -26.0°
